Flag for Germany Weather past 2 weeks in Offenburg, Baden-Württemberg, Germany

Now
64 °F

Broken clouds.


Feels Like: 64 °F
Forecast: 41 / 47 °F
Wind: 15 mph from Southwest

Location: Lahr - CAN-AFB

Current Time: Oct 21, 2014 at 1:20:23 PM

Latest Report: Oct 21, 2014 at 12:50 PM


Visibility: N/A

Pressure: 29.89 "Hg

Humidity: 60%

Dew point: 50 °F

Location of OffenburgLocation

Historic Weather in Offenburg — Graph

°F

Offenburg temperature yesterday

Maximum temperature yesterday: 73 °F (at 1:20 PM)
Minimum temperature yesterday: 61 °F (at 7:50 AM)
Average temperature yesterday: 67 °F

Past Weeks' High & Low Weather Summary

 TemperatureHumidityPressure
High77 °F (Oct 19, 3:20 PM)100% (Oct 10, 8:20 AM)30.18 "Hg (Oct 10, 8:20 AM)
Low50 °F (Oct 14, 7:50 AM)47% (Oct 9, 2:50 PM)29.71 "Hg (Oct 7, 7:50 AM)
Average63 °F78%29.90 "Hg
* Reported Oct 6 12:20 PM — Oct 21 12:20 PM, Offenburg, Weather by CustomWeather, © 2014

Note: Actual official high and low records may vary slightly from our data, if they occured in-between our weather recording intervals... More about our weather records

Advertising

Offenburg weather history for previous 24 hours

 ConditionsComfort  
Time TempWeatherWind HumidityBarometerVisibility
12:20 PM
Oct 21
63 °FScattered clouds.7 mph77%29.92 "HgN/A
11:50 AM63 °FScattered clouds.9 mph77%29.95 "HgN/A
11:20 AM63 °FPassing clouds.9 mph83%29.95 "HgN/A
10:50 AM61 °FPassing clouds.9 mph88%29.95 "HgN/A
10:20 AM59 °FPassing clouds.7 mph88%29.95 "HgN/A
9:50 AM57 °FScattered clouds.5 mph88%29.95 "HgN/A
9:20 AM57 °FScattered clouds.6 mph94%29.95 "HgN/A
8:50 AM55 °FFog.3 mph94%29.98 "HgN/A
8:20 AM55 °FPassing clouds.3 mph94%29.95 "HgN/A
7:50 AM55 °FPassing clouds.2 mph94%29.95 "HgN/A
7:20 AM57 °FPartly cloudy.5 mph88%29.98 "HgN/A
6:50 AM57 °FPassing clouds.5 mph88%29.98 "HgN/A
7:20 PM
Oct 20
63 °FPartly sunny.5 mph88%30.04 "HgN/A
6:50 PM63 °FPartly sunny.3 mph88%30.04 "HgN/A
6:20 PM64 °FPartly sunny.5 mph83%30.04 "HgN/A
5:50 PM64 °FPartly sunny.3 mph83%30.04 "HgN/A
5:20 PM64 °FBroken clouds.3 mph83%30.07 "HgN/A
4:50 PM66 °FLight rain. Broken clouds.5 mph78%30.07 "HgN/A
4:20 PM66 °FBroken clouds.7 mph78%30.07 "HgN/A
3:50 PM68 °FBroken clouds.8 mph73%30.07 "HgN/A
3:20 PM68 °FBroken clouds.7 mph73%30.07 "HgN/A
2:50 PM68 °FBroken clouds.8 mph73%30.07 "HgN/A
2:20 PM68 °FBroken clouds.10 mph73%30.09 "HgN/A
1:50 PM72 °FPartly sunny.7 mph61%30.09 "HgN/A
1:20 PM73 °FScattered clouds.7 mph61%30.09 "HgN/A
Weather by CustomWeather, © 2014

See weather overviewHow to use our weather pages